Theta_e
322 322 322 324 323 322 321 321 321 323 325 323 324 326 325 324 323 325 326 326 327 328 329 329 330 330 329 329 330 329 329 329 329 326 327 326 326 329 329 329 326 325 327 327
322 323 323 323 322 324 323 323 324 323 325 324 323 324 325 325 324 324 325 325 326 325 325 326 325 326 330 330 328 327 325 321 322 321 318 320 320 321 323 323 325 326 327 328
323 324 325 324 323 324 323 320 320 321 322 320 320 322 323 326 324 324 323 322 322 321 322 322 323 322 323 324 324 323 322 321 322 320 319 318 316 315 320 322 323 322 324 323
325 323 324 323 325 323 324 320 320 320 319 319 318 316 317 326 325 324 322 321 321 321 321 321 322 322 321 321 322 322 323 320 319 319 318 317 317 318 317 319 319 322 322 323
324 325 324 323 324 324 324 321 320 319 317 318 317 316 316 326 326 324 322 322 321 320 319 320 320 321 320 318 319 319 318 319 319 317 316 316 316 316 316 316 315 315 315 316
325 324 324 324 324 323 323 321 320 320 317 319 319 321 324 327 326 325 323 323 322 320 321 321 320 319 317 317 316 316 316 317 316 317 317 317 316 317 315 314 314 313 315 318
326 326 323 324 325 322 319 318 318 323 320 323 318 320 328 324 322 321 321 320 319 320 315 315 315 316 317 316 315 315 313 312 312 314 316 316 316 316 316 315 315 315 315 318
328 331 326 325 323 322 319 318 317 324 323 318 318 330 326 322 322 321 321 319 318 317 315 315 317 318 316 315 314 314 313 313 312 313 314 314 316 316 314 315 316 316 316 315
327 328 325 323 321 319 319 321 320 320 323 321 321 326 324 322 322 320 319 318 316 317 315 315 316 316 316 313 314 312 313 312 312 312 312 311 311 311 313 315 314 314 313 312
327 328 327 323 322 319 318 320 315 324 325 324 321 322 324 322 321 320 319 316 316 316 314 313 315 314 311 312 312 312 311 312 312 311 311 310 309 309 311 311 310 311 310 310
325 328 329 327 325 321 322 322 317 319 320 322 324 321 323 323 321 320 316 314 312 312 310 309 310 312 313 312 312 312 310 310 310 310 310 309 309 309 309 310 310 310 310 309
326 327 329 327 322 320 319 317 318 323 323 323 324 323 323 322 318 317 316 314 312 311 309 309 311 311 312 311 311 310 310 309 309 309 308 309 308 308 306 306 306 308 308 309
328 326 327 328 324 323 323 324 320 320 322 323 324 324 323 320 317 316 314 312 310 309 311 309 310 311 312 311 310 310 309 309 308 307 306 306 305 305 304 305 306 306 306 307
325 325 326 330 328 324 325 325 321 320 322 325 325 322 320 318 316 315 313 312 310 311 311 310 308 311 311 310 310 309 308 307 305 304 304 303 303 303 303 304 304 304 305 305
321 324 325 324 324 322 321 320 318 317 318 321 321 321 318 317 315 314 314 312 312 312 312 309 309 310 310 310 309 307 306 304 303 303 303 303 303 303 303 304 304 304 304 304
325 325 326 328 325 322 322 322 321 322 322 320 320 320 317 316 314 314 314 312 312 312 311 310 310 310 309 310 307 305 304 303 303 303 303 303 303 303 304 304 304 304 304 304
325 325 328 329 326 324 322 325 324 322 319 319 319 319 317 315 315 315 312 312 312 311 311 310 309 309 309 307 305 303 303 303 303 303 303 303 303 303 304 304 304 304 305 305
322 326 327 327 326 327 322 323 323 322 319 316 317 319 317 316 315 315 312 312 311 311 310 309 309 309 307 306 305 303 303 303 303 303 303 303 304 304 304 304 305 305 305 305
320 323 324 324 325 324 323 326 324 318 318 321 319 319 319 317 316 315 314 312 310 310 310 310 309 308 307 306 305 303 303 303 303 303 303 304 304 305 305 305 305 306 306 306
326 322 323 324 326 327 326 323 322 320 321 321 319 320 320 318 316 315 314 311 310 311 310 309 308 307 306 306 305 304 303 303 303 303 304 304 305 306 307 307 307 307 307 307
325 326 326 325 324 325 324 321 320 322 319 321 321 320 319 317 315 314 311 309 311 311 309 308 307 307 306 305 304 304 303 303 303 303 304 305 307 308 308 307 307 307 307 306
329 328 328 327 328 328 322 321 321 321 322 321 320 319 317 315 314 312 310 310 311 310 309 307 306 306 305 304 303 303 303 303 304 304 305 306 308 308 308 307 307 306 305 304
324 324 327 326 325 324 321 323 320 318 318 321 317 317 316 314 312 310 309 310 310 310 308 306 306 306 305 303 302 302 302 303 304 304 305 307 309 308 306 305 305 305 305 303
324 324 321 322 322 323 324 322 321 318 318 316 316 316 312 312 311 310 311 310 309 309 307 306 306 304 303 302 302 302 302 303 304 304 306 308 309 306 306 305 305 305 305 303
321 321 324 323 323 322 322 321 319 318 317 317 315 313 312 311 310 311 310 310 308 306 306 306 304 302 302 302 302 302 302 303 304 305 306 308 309 307 307 307 307 307 305 303
321 321 322 324 322 322 321 318 318 317 317 315 313 312 313 312 310 312 310 308 306 305 306 304 303 302 302 302 302 302 303 303 304 305 307 308 308 307 307 307 308 309 308 308
Wind_Speed
8 2 3 4 5 6 8 8 9 2 8 6 3 9 9 8 9 10 10 10 10 11 16 16 14 11 11 11 9 10 11 14 17 22 24 25 24 21 18 16 3 3 3 3
7 5 6 8 8 4 7 7 8 9 8 5 3 1 8 9 5 9 12 11 11 8 7 14 12 10 10 9 4 5 4 6 7 11 16 19 24 27 23 21 19 18 14 6
2 4 7 7 7 9 7 9 9 8 9 7 6 4 5 3 9 12 9 9 9 9 8 7 12 9 7 5 5 4 3 5 6 6 10 15 19 24 27 29 24 23 19 18
3 6 5 7 9 9 6 9 8 10 9 4 5 5 8 11 8 8 9 8 9 8 7 6 6 8 4 4 7 7 8 5 4 3 4 8 9 12 17 22 30 26 21 18
6 5 7 7 5 3 3 6 6 9 7 4 9 1 7 9 8 9 8 9 9 8 7 4 4 4 2 16 16 10 4 2 2 3 10 10 11 12 15 17 23 29 31 30
3 4 3 3 7 7 2 5 8 5 2 2 11 7 2 3 2 5 7 7 7 6 3 1 8 12 10 12 10 12 15 11 15 10 9 12 14 13 13 16 21 26 26 23
9 3 6 5 5 9 10 7 4 6 3 5 12 7 3 6 11 10 8 7 5 3 7 7 12 16 20 14 19 16 19 22 19 17 16 15 15 16 16 23 21 19 21 16
5 5 4 2 4 2 6 2 4 2 3 5 7 4 2 6 7 6 3 5 6 6 7 8 13 17 13 6 9 13 23 24 21 20 21 18 18 24 29 26 22 17 16 21
4 2 3 6 5 3 6 4 3 1 4 2 1 4 2 6 4 5 6 5 8 6 7 6 11 15 4 17 14 19 19 20 21 20 19 20 21 20 19 16 15 13 13 15
3 4 3 4 3 4 1 1 5 3 0 3 7 4 2 4 6 5 6 7 6 5 7 6 14 17 19 24 22 22 21 20 19 17 19 20 21 24 23 20 18 18 20 19
5 3 6 7 2 6 1 2 1 3 4 4 1 5 4 2 2 4 7 7 7 6 5 6 10 17 19 19 19 18 19 20 21 23 24 23 20 18 15 18 21 19 17 18
1 2 2 6 8 4 3 2 3 5 5 1 4 5 2 1 8 9 6 7 6 6 7 8 14 15 17 17 18 18 20 20 20 21 23 23 19 22 26 30 29 25 24 21
3 2 3 10 5 3 3 3 4 4 4 5 4 6 6 7 6 6 8 8 8 9 9 8 13 9 15 17 18 20 20 19 19 21 26 28 26 28 27 24 22 24 23 22
5 1 3 5 7 5 6 7 6 6 4 6 7 9 6 6 8 8 8 8 8 7 7 7 8 13 17 19 19 20 18 20 28 27 24 25 25 24 24 24 24 25 24 24
4 2 4 8 11 12 9 10 8 7 7 5 7 3 4 5 7 6 6 7 7 7 8 7 7 12 16 17 16 16 23 25 24 24 25 26 27 27 26 24 24 25 25 25
4 2 4 6 11 13 15 13 8 6 7 5 6 3 4 3 7 10 8 9 8 8 8 7 8 11 15 15 16 20 22 23 23 23 25 27 26 27 27 26 25 24 24 24
5 4 2 4 7 11 8 6 2 3 6 3 4 2 6 10 9 8 8 8 8 7 7 7 7 15 16 17 20 22 23 24 24 25 27 27 27 26 26 26 25 24 23 22
2 1 2 4 6 3 7 6 7 5 6 6 5 6 6 6 7 6 6 6 7 6 8 7 12 13 16 23 22 27 26 25 26 27 28 28 27 26 26 26 25 24 22 22
7 4 2 2 3 9 11 4 3 4 3 5 5 7 5 6 6 6 8 7 7 6 8 10 15 14 16 20 24 25 26 26 27 27 28 30 30 28 27 25 25 25 24 23
7 6 4 2 1 4 3 6 7 5 2 5 7 5 5 6 5 4 5 6 8 13 15 17 16 15 20 24 25 24 26 26 25 28 30 32 32 29 25 24 25 24 22 23
4 3 7 5 5 7 3 7 3 2 6 2 2 3 4 2 4 3 7 8 15 15 16 16 16 14 18 22 24 23 25 24 28 31 31 31 30 26 24 23 23 20 18 17
8 6 5 4 5 7 7 4 4 6 3 2 1 4 4 5 6 6 7 7 14 14 16 16 19 18 21 24 24 23 24 28 30 31 31 30 29 29 26 23 21 18 16 17
1 6 5 6 6 6 8 6 6 7 5 2 5 3 4 5 6 6 6 7 11 15 16 18 20 19 21 23 23 23 26 29 28 29 29 30 29 25 24 22 20 18 17 15
4 2 4 3 1 4 7 6 8 7 6 7 4 6 7 5 6 6 6 7 11 15 17 20 17 20 22 23 24 24 25 27 27 27 28 28 20 29 27 23 20 19 17 15
4 4 2 2 3 2 5 4 8 8 7 6 9 8 6 5 5 5 4 8 13 13 16 15 18 20 21 24 24 25 25 26 26 27 26 25 22 26 25 24 21 21 22 14
2 4 2 5 4 5 3 8 9 7 6 8 8 5 4 5 5 7 7 11 11 13 14 16 21 19 22 23 24 25 26 26 26 25 24 24 22 23 23 21 21 20 17 22
Wind_Direction
276 238 295 34 47 14 346 348 340 319 210 146 171 159 171 148 141 129 117 111 108 108 113 101 91 86 85 80 74 66 43 33 20 17 18 11 2 2 6 7 251 148 102 73
309 58 0 359 337 36 19 19 359 335 28 36 76 314 141 163 161 139 124 113 117 119 118 121 113 107 116 114 92 94 81 66 45 19 6 0 355 351 350 337 342 339 347 357
14 51 22 11 15 36 32 32 2 340 333 357 2 315 259 141 110 97 96 117 118 125 133 133 136 129 139 164 190 192 163 102 96 31 352 341 330 329 338 340 340 343 337 315
35 89 51 332 56 39 5 15 358 332 356 308 45 286 311 146 116 115 129 139 139 151 131 135 148 167 171 215 206 200 149 123 102 79 356 335 321 308 305 310 321 328 331 337
270 51 49 11 44 44 250 343 288 280 283 328 292 2 287 116 141 168 168 148 145 126 117 108 290 242 2 38 60 64 354 298 200 312 306 291 279 277 290 301 302 304 311 314
236 116 91 64 353 311 294 310 322 282 171 332 267 199 333 25 167 102 47 74 93 103 86 219 30 40 60 24 27 3 346 330 328 312 282 278 274 260 278 282 287 294 303 310
329 231 85 84 12 359 21 44 347 351 21 208 341 35 28 65 58 76 73 73 57 6 11 29 39 24 351 17 34 21 2 343 335 329 311 291 277 269 273 273 266 273 283 288
16 347 25 110 82 348 288 130 140 276 355 285 320 52 197 106 101 111 98 114 70 74 46 26 6 343 351 23 332 321 320 314 316 337 330 324 323 297 288 274 272 261 263 279
10 41 128 81 47 93 309 50 189 71 293 4 195 90 62 158 118 61 40 41 64 64 40 12 342 326 224 326 342 359 22 22 360 350 337 331 331 339 341 314 297 292 284 285
331 336 344 149 207 139 207 273 33 353 274 298 325 3 155 43 9 8 10 63 44 26 5 336 328 354 34 55 37 16 8 0 353 342 333 326 321 320 313 299 294 293 290 282
28 76 298 344 239 195 166 289 218 142 140 166 257 281 173 132 256 62 49 44 40 19 355 1 42 24 63 39 34 26 9 353 339 327 323 321 319 316 323 324 314 302 292 290
73 115 304 270 298 77 87 315 116 116 291 3 150 262 10 303 56 70 41 38 11 6 28 17 22 26 33 29 20 7 353 344 335 331 327 322 311 309 311 313 304 298 294 287
334 317 353 330 29 42 227 250 213 185 124 202 162 260 268 46 64 43 52 22 8 10 24 13 354 37 29 22 3 351 345 336 332 330 323 311 310 311 310 305 300 297 293 290
80 346 181 208 262 304 285 253 232 189 132 221 220 261 351 13 22 22 23 11 20 20 358 332 357 31 20 3 354 345 347 342 332 324 319 316 313 310 306 300 295 295 293 291
113 219 279 286 291 297 298 301 288 275 241 177 244 256 31 35 31 17 9 356 29 1 335 10 17 27 2 347 354 350 337 334 331 321 317 312 309 306 303 297 294 291 288 287
175 243 314 298 292 287 288 280 271 310 297 45 28 42 55 41 33 14 356 7 4 337 12 21 33 359 344 357 358 342 337 334 326 317 311 310 306 304 300 295 292 287 285 279
164 172 355 270 310 317 323 289 306 95 65 89 55 313 25 15 6 344 8 9 341 8 19 32 4 344 357 7 352 342 333 328 324 318 314 310 305 300 299 295 291 286 283 281
174 61 195 264 316 267 244 62 78 92 76 35 15 40 26 14 340 343 33 356 12 24 35 9 356 13 2 351 342 344 335 329 324 317 315 311 306 299 296 295 291 288 285 280
159 127 290 180 230 262 300 117 146 131 294 78 69 24 1 337 347 334 8 34 10 57 13 11 8 354 353 348 340 339 334 329 323 320 318 315 311 305 300 293 294 294 287 285
149 147 139 346 297 251 222 139 125 132 347 64 51 356 341 5 13 282 357 24 31 24 25 8 3 352 352 347 340 332 330 325 322 322 319 318 318 311 307 304 298 301 294 285
143 184 191 216 227 265 74 96 106 125 234 34 324 340 17 11 231 279 25 5 33 20 6 4 1 356 350 341 338 326 326 323 321 323 322 322 325 322 323 316 312 314 309 305
170 171 194 206 222 279 146 136 163 201 187 231 1 54 16 325 2 10 354 36 16 358 1 7 356 345 340 342 335 326 324 324 324 326 325 326 323 328 325 323 317 324 316 321
310 177 194 157 210 180 189 169 169 167 186 128 91 35 354 38 20 357 353 26 360 11 10 359 350 347 340 339 336 325 326 327 328 330 330 332 335 338 342 343 341 329 320 319
314 161 170 86 151 148 196 203 177 176 118 101 76 58 66 42 4 352 41 360 23 12 7 355 357 343 338 338 334 328 330 333 331 331 332 335 350 354 355 355 357 350 338 320
216 13 309 252 176 221 18 115 108 104 96 82 76 74 53 23 356 37 14 28 27 11 357 1 350 338 336 335 333 335 339 341 332 332 333 335 346 358 357 9 11 4 15 359
241 215 161 226 281 173 160 138 127 113 99 92 80 37 341 47 48 52 22 56 29 2 2 358 345 339 337 334 335 341 346 346 338 331 333 338 352 359 359 0 6 25 23 34